Location: Asheville, NC
(35.6000°N, 82.5500°W)
Time: 07:15:28
(UTC-04:00)

XW-2D - Pass Details

Date: 12 February 2018
Orbit: 509 x 531 km, 97.5° (Epoch: 21 May)

Event Time Altitude Azimuth Distance (km) Brightness Sun altitude
Rises 18:48:02 0° 206° (SSW) 2,622 ? -8.5°
Reaches altitude 10° 18:50:53 10° 230° (SW) 1,736 ? -9.1°
Maximum altitude 18:53:03 15° 266° (W) 1,458 ? -9.5°
Drops below altitude 10° 18:55:13 10° 302° (WNW) 1,737 ? -9.9°
Sets 18:58:05 0° 326° (NNW) 2,625 ? -10.5°
